Location: Lafig�re
(44.4503°N, 4.0357°E)
Time: 10:27:31
(UTC+00:00)

Vanguard 1 - Visible Passes

Search period start: 24 January 2021 00:00
Search period end: 03 February 2021 00:00
Orbit: 648 x 3834 km, 34.3° (Epoch: 23 January)

Date Brightness Start Highest point End Pass type
(mag) Time Alt. Az. Time Alt. Az. Time Alt. Az.
24 Jan 13.5 16:54:50 10° W 17:17:12 55° SSW 17:34:58 10° SE visible
24 Jan 13.5 19:22:41 10° W 19:39:53 30° SW 19:52:35 10° S visible
25 Jan 13.6 17:16:13 10° W 17:38:03 50° SSW 17:55:19 10° SE visible
25 Jan 13.7 19:45:14 10° W 20:00:00 23° SW 20:11:24 10° S visible
26 Jan 13.7 17:37:42 10° W 17:58:45 44° SSW 18:15:26 10° SSE visible
26 Jan 13.9 20:08:44 10° W 20:19:57 17° SW 20:29:13 10° SSW visible
27 Jan 13.7 17:59:22 10° W 18:19:17 38° SW 18:35:14 10° SSE visible
27 Jan 14.1 20:35:13 10° WSW 20:39:49 11° WSW 20:44:05 10° SW visible
28 Jan 13.8 18:21:18 10° W 18:39:39 31° SW 18:54:38 10° S visible
29 Jan 13.9 18:43:42 10° W 18:59:53 25° SW 19:13:27 10° S visible
30 Jan 14.1 19:06:58 10° W 19:19:59 19° SW 19:31:21 10° SSW visible
31 Jan 14.0 16:58:52 10° W 17:18:30 39° SW 17:36:32 10° SSE visible
31 Jan 14.3 19:32:21 10° WSW 19:40:01 13° WSW 19:47:06 10° SW visible
01 Feb 14.1 17:20:41 10° W 17:39:01 32° SW 17:55:54 10° SSE visible
02 Feb 14.2 17:42:58 10° W 17:59:24 26° SW 18:14:42 10° S visible
